Location: *
(49.3500°N, 12.6000°E)
Time: 10:30:35
(UTC+00:00)

Cosmos 1461 - Pass Details

Date: 18 October 2019
Orbit: 523 x 644 km, 65.0° (Epoch: 18 November)

Event Time Altitude Azimuth Distance (km) Brightness Sun altitude
Rises 17:56:19 0° 320° (NW) 2,700 7.1 -17.4°
Reaches altitude 10° 17:58:29 10° 320° (NW) 1,819 6.1 -17.7°
Maximum altitude 18:02:34 83° 232° (SW) 567 2.8 -18.4°
Enters shadow 18:04:31 31° 147° (SSE) 1,009 3.8 -18.7°
